Regional Weather Roundup
Issued by NWS Newport/Morehead, NC

Home | Current Version | Previous Version | Text Only | Print | Product List | Glossary On
Versions: 1 2 3 4 5 6 7 8 9 10 11 12 13 14 15 16 17 18 19 20 21 22 23 24 25 26 27 28 29 30 31 32 33 34 35 36 37 38 39 40 41 42 43 44 45 46 47 48 49 50
000
ASUS42 KMHX 290525
RWRMHX
WEATHER ROUNDUP FOR EASTERN NORTH CAROLINA
NATIONAL WEATHER SERVICE NEWPORT/MOREHEAD CITY NC
100 AM EDT FRI MAY 29 2015

NOTE: "FAIR" INDICATES FEW OR NO CLOUDS BELOW 12,000 FEET
WITH NO SIGNIFICANT WEATHER AND/OR OBSTRUCTIONS TO VISIBILITY

NCZ015>017-031-032-045>047-102-103-290600-
NORTH COAST

CITY           SKY/WX    TMP DP  RH WIND       PRES   REMARKS
EDENTON        CLEAR     70  64  83 S5        30.23S
ELIZABETH CITY CLEAR     69  63  81 S6        30.23F
KITTY HAWK     CLEAR     71  63  75 S3        30.23S
MANTEO         CLEAR     73  63  71 S10       30.24S

$$

NCZ045>047-081-094-103-104-290600-
CENTRAL COAST

CITY           SKY/WX    TMP DP  RH WIND       PRES   REMARKS
FRISCO         PTCLDY    73  63  70 S6        30.24S
SWANQUARTER      N/A     66 N/A N/A SE2       30.21S

$$

NCZ095-097-098-100-101-290600-
SOUTHERN COAST

CITY           SKY/WX    TMP DP  RH WIND       PRES   REMARKS
BEAUFORT       MOCLDY    65  62  90 CALM      30.23F
CEDAR ISLAND     N/A     70 N/A N/A SE1       30.27S
JACKSONVILLE   CLEAR     65  62  90 S3        30.22F
PINEY ISLAND   FLURRIES N/A N/A N/A CALM      30.23F
WILMINGTON     CLEAR     65  62  90 CALM      30.23S


$$

NCZ011>013-027>030-043-044-078>080-089-090>093-098-290600-
COASTAL PLAIN

CITY           SKY/WX    TMP DP  RH WIND       PRES   REMARKS
AHOSKIE        PTCLDY    68  63  82 S5        30.23S
CLINTON        CLEAR     69  64  85 CALM      30.24S
ELIZABETHTOWN  CLEAR     67  64  90 CALM      30.23S
GOLDSBORO      PTCLDY    70  64  80 CALM      30.21S
GREENVILLE     PTCLDY    70  63  78 S5        30.24S
HAVELOCK       CLEAR     63  60  90 CALM      30.24F
KENANSVILLE    MOCLDY    65  62  90 CALM      30.25S
KINSTON        MOCLDY    69  63  82 S3        30.24F
NEW BERN       CLEAR     65  61  87 CALM      30.25F
RICHLANDS      CLEAR     63  57  82 CALM      30.23F
ROCKY MOUNT    CLOUDY    72  65  78 S6        30.23R
WASHINGTON     CLEAR     69  63  80 S5        30.24S
WHITEVILLE     CLEAR     64  62  91 CALM      30.22F

$$

AMZ130-135-150-152-154-156-158-170-250-252-270-ANZ085-086-088-633-658-670-290600-
MARINE OBSERVATIONS

STATION/POSITION TIME  TEMP    WIND        PRES    WAVE   SWELL
                       AIR SEA DIR/SP/G            HT/PER HT/PER
                 (UTC) (F)     (DEG/KT/KT) (MB)    (FT/S) (FT/S)
CHESAPEAKE LIGHT 0500   67     190/ 21/ 21 1023.9
64 E VA BEACH    0450   67 65  150/  4/  4 1023.5    4/ 8   3/ 8
DUCK             0500   71 57  180/  6/  8 1022.9
2 E DUCK         0411      61                N/A     2/ 8
OREGON INLET     0500   71 78  140/  3/  5 1023.8
13E OREGON INLT  0500      74                N/A     3/10   2/11
HATTERAS CG      0500   74 76  160/  4/  7 1023.5
DIAMOND BUOY     0450   75 77  140/  6/ 10 1023.9    4/ 9   3/ 9
CAPE LOOKOUT     0500   74     150/  4/  5 1023.5
BEAUFORT LAB     0500   72 76   CALM  /  1 1022.9
27 SE WRIGHTSVLE 0500      76  180/  2/  4   N/A
5 SE WRIGHTSVLE  0408   76 77  150/  6/  8 1023.7
225 S CAPE HAT   0450   74 74   60/ 12/ 16 1022.1    6/ 9   5/ 9
41 SE CHARLESTON 0450   76 79  100/ 10/ 12 1022.5    3/ 8   3/ 8

$$


USA.gov is the U.S. government's official web portal to all federal, state and local government web resources and services.